Location: Newark
(30.0333°N, 31.2167°E)
Time: 03:19:11
(UTC+00:00)

Tiros 1 despin weight - Pass Details

Date: 28 January 2020
Orbit: 594 x 642 km, 48.2° (Epoch: 16 February)

Event Time Altitude Azimuth Distance (km) Brightness Sun altitude
Rises 15:38:50 0° 299° (WNW) 2,922 ? -3.0°
Reaches altitude 10° 15:41:24 10° 287° (WNW) 2,018 ? -3.5°
Maximum altitude 15:45:22 28° 229° (SW) 1,197 ? -4.3°
Drops below altitude 10° 15:49:20 10° 170° (S) 2,020 ? -5.1°
Sets 15:51:55 0° 159° (SSE) 2,926 ? -5.7°
